TIMESTAMP,CO2_1_1_1,H2O_1_1_1,TAU_1_1_1,TAU_SSITC_TEST_1_1_1,H_1_1_1,H_SSITC_TEST_1_1_1,LE_1_1_1,LE_SSITC_TEST_1_1_1,FC_1_1_1,FC_SSITC_TEST_1_1_1,WD_0_0_1,WS_0_0_1,WS_MAX_0_0_1,U_SIGMA_0_0_1,V_SIGMA_0_0_1,W_SIGMA_0_0_1,USTAR_0_0_1,MO_LENGTH_0_0_1,ZL_0_0_1,FETCH_MAX_0_0_1,FETCH_70_0_0_1,FETCH_80_0_0_1,FETCH_90_0_0_1,PA_0_0_1,RH_0_0_1,TA_0_0_1,VPD_0_0_1,T_SONIC_0_0_1,T_SONIC_SIGMA_0_0_1
[yyyymmddHHMMSS],[mmolCO2 mol-1],[mmolH2O mol-1],[kg m-1 s-2],[#],[W m-2],[#],[W m-2],[#],[umolCO2 m-2 s-1],[#],[Decimal degrees],[m s-1],[m s-1],[m s-1],[m s-1],[m s-1],[m s-1],[m],[#],[m],[m],[m],[m],[kPa],[%],[deg C],[hPa],[deg C],[deg C]
20210529003000,418.79818522590364,4.1789032507967265,0.42879306862375499,0,16.398857333393114,1,43.785725878294606,0,-1.1230551277519392,0,7.0723588004374562,2.7560387377058597,7.6630194439425425,1.1758491351178748,1.0670407064842469,0.70387966246776135,0.60797744165825129,-1146.8729745822648,-1.6566786750660447E-002,111.36946632671865,203.61890391474208,243.67982299224266,305.05822228657291,94.503981087559737,31.802413793103447,10.216206896551739,8.4710611986220439,9.7068655324458746,0.27505975967207968
20210529010000,419.19246152594769,4.1736355284341711,0.46699119806704237,0,0.48437744589684545,2,32.572029358951092,0,-0.51977943165446627,0,9.7425732796467912,2.9244729991989136,8.0270577134790777,1.2493122806899519,0.89945695895352329,0.64750004192820509,0.63352516233528400,-43939.591410217632,-4.3241184977386418E-004,123.04788526445873,224.97077837361530,269.23256337468467,337.04722104691029,94.531010104189832,33.457333333333331,9.4453333333333376,7.8489972393648006,8.9772142484799815,0.24867688953353712
20210529013000,419.79387963298620,4.3644902954521756,0.17058701863070130,0,-21.845323055662696,0,15.352235705293841,0,7.9176039976356041E-002,1,6.9226785482005084,2.3336299118275772,6.3164409575349971,0.86537340504140758,0.65243263930563822,0.48951401871098676,0.38217534682551507,213.95418348899273,8.8804059309162756E-002,102.71950729445801,187.80402004083257,224.75344617287439,281.36464439429875,94.572967396050345,37.348333333333336,8.4850000000000136,6.9259352949639732,8.0912832607693872,0.32242104793513315
20210529020000,420.68884482092091,4.4850581868821822,0.17314741297010619,0,-16.138465488700366,1,19.294368613412541,0,0.57685223926412921,1,10.439130570713331,2.6692259022637379,6.0692722766103797,0.91434248381508187,0.61258491107145452,0.47382836947717816,0.38424090743798778,294.40266751376282,6.4537458714132689E-002,105.88658247358769,193.59444355510291,231.68310422465493,290.03975397198957,94.604112201605915,41.316000000000003,7.4073333333333267,6.0283160767619597,7.0362424867419122,0.30330891478278010
20210529023000,422.03403268104972,4.6901189895218449,9.7990910559148964E-002,0,-11.858512975321281,2,-4.7021424588133751,2,-0.51765745097777660,2,18.966543971035321,2.0893139836051118,5.3299407469762148,0.81365806397910856,0.51664414397610625,0.37926399087840246,0.28845146332234695,169.55374541677415,0.11205886341995432,100.59115816250784,183.91271902548760,220.09655270965337,275.53476638542725,94.640810233381032,46.594999999999999,6.3133333333333326,5.0888704308167707,5.9911924117922695,0.35763019971931520
20210529030000,423.76185349277756,5.1640631512802484,3.6204435227728461E-002,0,-25.847345881795196,0,16.953831468800857,0,1.5972983232825297,0,18.769682020956054,1.6226236708588908,3.2310059031509102,0.45759594583345919,0.35286484302099586,0.23999589876641156,0.17502802162215056,17.382684581966814,1.0930417514283741,125.37355143030072,1064.0000000000000,1906.0000000000000,4927.0000000000000,94.660505060763882,54.841000000000001,5.3536666666666974,4.0263895682884083,5.1389155061510792,0.28839587737640388
20210529033000,424.28321129151664,5.1309875957649620,8.6882988383986517E-002,0,-31.546868543934767,0,32.926789872893664,0,3.0698175118390996,0,24.449018559147333,2.1170759288551948,4.2126855555768552,0.58531929240358460,0.40176620451772660,0.27635138081478716,0.27081176203914903,52.760492771968373,0.36011794056053037,123.20252453536619,225.25350828050000,269.57091886299986,337.47080196755803,94.678572077473959,56.899333333333331,4.7356666666666456,3.6808316377364232,4.5517386559380384,0.31334890323015407
20210529040000,424.88070671277285,5.0459678157060361,5.3902513440125616E-002,0,-13.631516203987330,1,12.367798046805420,0,1.2592479838121020,1,25.092533363772702,1.7378988528330441,3.7636772261331304,0.52627833053279338,0.36811426579408008,0.27570983618365125,0.21305585346248790,59.462256159900221,0.31953042529881498,101.87974939095051,186.26867476617429,222.91603001176316,279.06441739632089,94.694669519834434,58.357666666666667,4.1383333333333212,3.4105437529310580,3.9597020479274079,0.27501146368434176
20210529043000,425.08039338641720,4.9500712774952040,2.7331412273217011E-002,0,-16.687659557663640,0,9.5071995991697502,1,1.5460686935995418,0,11.779916591573055,1.2699017374723063,3.5224874440845921,0.45684925092380363,0.31273372833172552,0.20115016713947786,0.15162230226610468,17.507676795188335,1.0852382199117248,101.90225489486248,844.00000000000000,1501.0000000000000,3833.0000000000000,94.706342999482587,58.408999999999999,3.8546666666666738,3.3390782019767191,3.6550667942597102,0.25981316972351348
20210529050000,424.38683964847371,4.9255100161981042,3.3463144156790389E-003,1,0.94163906870540826,2,1.7679477205509500,1,9.0328446896485601E-002,1,17.037029750461187,1.7532836405155408,2.6447086023228690,0.39637577250193645,0.22308372961826792,9.9304085168004902E-002,5.3067098856575158E-002,-13.303865462334182,-1.4281563545416689,356.17212602952554,1030.0000000000000,1390.0000000000000,2204.0000000000000,94.722231170355911,57.359999999999999,4.0439999999999827,3.4691865857874649,3.9098497856987819,0.21443299207963823
20210529053000,424.43054685970816,4.9027507996149824,3.8419147330590289E-003,0,-1.8041357590381442,1,4.8544065934951588,1,0.51726671905465460,0,22.799764756485558,1.9469002446676058,3.0237832806700733,0.25070021045013774,0.19661677036163897,7.6181370006755414E-002,5.6840147042190044E-002,8.5324539903041980,2.2267919664835620,1490.4465760316045,-9999.,-9999.,-9999.,94.720498280164932,57.933999999999997,3.8363333333333571,3.3728573595472073,3.7242019890679785,0.26287275673695232
20210529060000,424.17109888875234,4.8333728566400938,5.4196792287377797E-003,1,0.72567548354064793,2,4.8574246338015783,1,0.43619468880995388,1,50.707904404069495,1.7460187000022667,2.3724530485995547,0.22254530451329180,0.24624298193082175,5.4445711339307909E-002,6.7461128770916409E-002,-35.460279022167171,-0.53581078671497739,385.62307179979433,1182.0000000000000,1619.0000000000000,2630.0000000000000,94.706445695095496,58.883333333333333,3.4016666666666424,3.1972148991642833,3.3337947201198972,0.24931500443592919
20210529063000,425.61379806060660,5.0985864237286593,3.2578528035472057E-003,1,2.4082063300781691,1,-5.2263152476234689,1,-0.58634193977480253,1,77.524349142232879,1.5019626031862867,2.0471328625505745,0.20121873250696257,0.13134759419288913,6.7117646180191795E-002,5.2277997502893511E-002,-4.9722261196767157,-3.8212260550281134,200.04372897383817,566.00000000000000,760.00000000000000,1195.0000000000000,94.690442981207298,63.644333333333336,3.0553333333333512,2.7585749234035046,2.9884049737789269,0.23296717204664075
20210529070000,425.54785601209255,5.1244828941903169,4.0384746931834865E-003,1,-9.6569955762906350,1,20.389127964244210,1,2.2863523109237498,1,85.999614824899425,2.0527941404501555,2.9532972880688111,0.22938159401232910,0.16938945871972172,8.8798348554136791E-002,5.8234297083245547E-002,1.7137305961785811,11.086923488655556,1451.0749144225892,-9999.,-9999.,-9999.,94.677302681206598,62.903666666666666,3.2903333333333080,2.8619854901492388,3.2353158730401219,0.29641466192588023
20210529073000,426.21554541405783,5.2835489448169684,1.7596226960622567E-002,0,-16.587374216768040,0,16.612535600184820,0,1.3451485088140984,0,96.277162668438933,2.4366102736990496,3.5254120735155423,0.32978569156565746,0.27915369774561782,0.15161965396290206,0.12158622238352881,9.0809994739872018,2.0922807070329732,564.30268634115316,5231.0000000000000,9605.0000000000000,-9999.,94.676738902126729,64.332333333333338,3.4049999999999727,2.7741561348974448,3.3423460557725662,0.40604455475111467
20210529080000,428.86847761910491,5.7139602447990496,2.0277098831696639E-002,0,-17.812391593251402,0,9.6304133640941885,1,1.0407902090948500,1,104.60192284688243,2.5232188899281183,3.6100792624882114,0.32593748297278702,0.23866209809600242,0.15744117510780814,0.13051397575349663,10.460133150551556,1.8164204725250694,522.88532023456014,4944.0000000000000,9130.0000000000000,-9999.,94.676798465928826,69.923000000000002,3.3340000000000032,2.3276180697107258,3.2432462175157752,0.37399511681493447
20210529083000,430.25358906188262,5.9266873382273433,9.1035130060867914E-003,0,-8.5513744851066544,0,6.6218169396099062,0,1.1485849964734705,0,103.76783616056369,2.4025974341206062,3.2388497619505405,0.24174929163094627,0.20120869323548640,0.12475752397046121,8.7421171645837861E-002,6.5488276154241323,2.9012826593954362,1048.4722541809647,9879.0000000000000,-9999.,-9999.,94.691195263666458,73.367999999999995,3.1730000000000018,2.0376763093854628,3.0835158050398377,0.26525939307091018
20210529090000,430.28018534172207,5.8859855486369570,6.4225156755414806E-002,0,-41.301161480660475,0,28.857875738602250,0,3.4423876252961447,0,121.06292922075639,2.3826363824520875,4.7546079029280115,0.48613974689169864,0.43319444605732754,0.26024523880325645,0.23202441020718600,25.351667194492364,0.74945761374335729,114.22879816234538,208.84667444738372,249.93612912859027,312.89037516898668,94.698398542100691,74.942666666666668,2.7773333333333312,1.8641635559470593,2.6407706298828089,0.38200361839381214
20210529093000,426.83938502928635,5.1121913995435939,7.7394232349022804E-002,0,-43.035951815659480,0,41.587177703855133,0,3.8151565243448253,0,126.41022799108413,2.2347082643678666,3.8303932878652569,0.53524703241108851,0.46279348557050876,0.29957178246052563,0.25456009833460425,32.130246447235194,0.59134311438295706,109.92246050405880,200.97331577208291,240.51372967811946,301.09464915959074,94.717540774088548,65.916666666666671,2.6026666666666642,2.5043834362768980,2.3595402153862892,0.41999398393572657
20210529100000,425.88608351142472,4.6888592812377503,2.8703652236874815E-002,0,-14.761560662662399,0,3.9427920906693723,0,0.42022973799220847,0,126.19051855366092,2.2938902765429234,3.5601344797857295,0.37387431202618360,0.35338739408226816,0.21790600333610119,0.15495732813905538,21.132342640094450,0.89909577577789457,299.04244296613871,2950.0000000000000,5512.0000000000000,-9999.,94.747954958116324,60.960000000000001,2.4909999999999854,2.8458917327829947,2.2238099077013089,0.29866294733768939
20210529103000,426.70621283424725,4.8117870533018827,4.3720313058421334E-002,0,-27.161807719892057,0,6.6286079644611755,0,0.72095306094158806,0,129.59712943892532,2.3109028678580050,3.9354087700444351,0.46308250627276798,0.35874800570897147,0.25206275246393373,0.19127678922649763,21.609522775554442,0.87924199887901089,208.33702310730411,1953.0000000000000,3598.0000000000000,9776.0000000000000,94.797879209034846,61.574333333333335,2.7213333333333480,2.8473653301958257,2.4510480811743491,0.32790713233071200
20210529110000,426.29337024701800,4.7881638407433993,4.9379511222782488E-002,0,-18.714333789123753,0,10.533408554214136,0,1.0617209498927660,0,125.20393293718706,2.2739520519461944,3.6234591907423144,0.45872426243863712,0.34862938621921424,0.23703023008777890,0.20329821789139246,37.661546774372688,0.50449335269811091,110.74363299755149,202.47468098972158,242.31048038960589,303.34396784017605,94.814930631391022,60.839333333333336,2.8236666666666679,2.9229934598201264,2.5209501964590117,0.27137231418346863
20210529113000,426.52827753649848,5.2553504781736962,8.1705635477619429E-002,1,-6.6893954309029633,1,30.523781222368616,0,1.8291621376629641,0,113.98669406917554,1.7938755011201968,3.4510392323969774,0.49515360853694923,0.40570429868536206,0.29778251828065200,0.26193219493520475,225.35427585572788,8.4311690682824347E-002,113.00213449637901,206.60394204168674,247.25215124081990,309.53035334590061,94.807563136355427,62.989333333333335,3.6476666666666802,2.9283369243962643,3.3410897938381368,0.35963627800456588
20210529120000,424.93725105948710,5.2024870752416774,8.2494164153323363E-002,1,21.308212779787951,0,49.360788027110218,0,1.3448081733584718,1,111.29718900283287,1.4131919927866283,3.1847830130558439,0.49973440297084376,0.44291165211802141,0.32867468732722743,0.26388244343571671,-72.353897552178765,-0.26259815494110672,105.04376767429636,192.05350930000489,229.83899948140285,287.73115366286743,94.833422854600698,56.018999999999998,5.1809999999999832,3.8745267443518783,4.7947372309366187,0.39704596034552797
20210529123000,424.74616726213242,5.4306131780714226,0.11228809621560285,1,39.834440715308631,0,45.281458876910435,0,-0.14993143755736582,2,128.40786770193102,1.3705534419162964,4.1308044802755397,0.66856687083664601,0.67158252235783578,0.39993391908335513,0.30843921744080816,-61.814586922089440,-0.30737081562880025,101.71850831825510,185.97387466008453,222.56322957777141,278.62275311778575,94.845608092013890,54.399000000000001,6.2250000000000227,4.3188291503836203,5.8419994379679565,0.40034182315654088
20210529130000,421.45287796652849,4.6235057652655920,0.14753416239939660,1,73.196839290700964,0,27.075662414741590,1,-2.4314104108257615,0,139.89799166222804,1.9549398166420699,4.5334870532747518,0.77278193923785021,0.62500787002491032,0.45885162577756389,0.35416285440984252,-50.920801096508619,-0.37312845813226481,101.78399371149028,186.09360284441340,222.70651363540813,278.80212775524205,94.841391653862843,43.101333333333329,7.2699999999999818,5.7902482639672499,6.8279443359375023,0.40578231460977748
20210529133000,422.00463025487562,4.7712707278047413,0.21155620911182707,1,93.402267249841955,0,26.238332421119299,0,-2.9788805824524243,0,159.19888540765879,1.8599347064740246,4.9128021948461065,0.89793864957055125,0.68769770628538307,0.53302629394372913,0.42465666382614731,-68.793369707470276,-0.27618940721749219,104.39659841649819,190.87027749270149,228.42297320968098,285.95845680246174,94.840096208365168,42.358333333333334,7.9853333333333580,6.1594252746068490,7.5685683131450219,0.35669305424191527
20210529140000,421.74754093226113,4.9464873190139826,0.22286395891787689,1,215.79151025359789,1,56.704640624380644,0,-5.1527351992749244,1,151.25313594545824,1.5590526126593605,4.2237774242303958,0.72987602942984442,0.84422720773150084,0.65087675255282018,0.43668025068814353,-32.378632886558727,-0.58680673969676556,90.988547565377047,166.35608425836230,199.08574492049109,249.23172826654798,94.837499639105900,40.936333333333337,9.0206666666666706,6.7702536321339704,8.6434393725923542,0.57367489216757961
20210529143000,419.93100105577025,4.7402420407394370,0.57991487076353521,1,269.68142978182254,0,87.282523469248602,0,-5.8685352054813711,0,139.02318098643150,1.5854589364911846,5.1264442913878145,1.1017496928275032,0.86309315036653100,0.76712307593969042,0.70597145489089241,-109.46609618691708,-0.17356972306344837,117.16356431290707,214.21236296626722,256.35748786972420,320.92915432673846,94.828627156901049,36.072333333333333,10.268333333333317,7.9683991026907668,9.8194498452080552,0.56492523550668805
20210529150000,418.78094884138164,4.3806110604912778,0.49449196685516406,0,219.73456643666731,0,58.601367351953563,0,-4.9513560109197226,0,149.83069140418093,2.4925659107417069,6.8723699026682663,1.4160640757703584,1.1160635460925921,0.76614814164999168,0.65244842432496841,-106.04075166166828,-0.17917639871717486,110.11377383988138,201.32309756622553,240.93232915019141,301.61868602580444,94.823743290392656,32.248333333333335,10.764666666666642,8.7293313575874532,10.226805822911388,0.52915563585789216
20210529153000,418.56034280776788,4.4379778274782620,0.50257390425072068,0,283.85345635141698,0,85.650971299777282,0,-5.9698435830625645,0,142.98931220346051,2.6715828181994521,8.3900364001638259,1.6060431039800322,1.1860387747309902,0.78098362158731871,0.65882150706700637,-84.511655597744124,-0.22482106007289210,109.28374604772866,199.80554203838366,239.11620277245467,299.34511131027386,94.812488405164927,30.817666666666668,11.642999999999972,9.4484942810861714,11.012988115946428,0.63330107141955050
20210529160000,418.28574441392828,4.4256978795931303,0.67686782719963245,1,440.29458498640696,0,119.58904243196017,0,-10.168342597385433,1,170.23444981462768,2.1362844032068611,8.8665287029158009,1.2617576356125193,1.6098907486925544,0.94900730264229916,0.76537285543608102,-85.417119631819673,-0.22243784480086939,105.42356562144759,192.74790107773987,230.67000908921693,288.77147908066325,94.799481347222212,29.619000000000000,12.200333333333333,9.9721601717906339,11.674851413303031,0.71348525494958714
20210529163000,418.36165873230391,4.4448717186245119,0.67163412782600052,1,412.49176797026809,0,137.65147188694107,0,-7.6718374981989452,1,143.57877652521051,1.9836657905793689,8.6400358661752161,1.5377747905276071,1.4777591409619371,0.84311160774219573,0.76327057499898032,-90.409169597656202,-0.21015567430333484,115.63509487046205,211.41783334515182,253.01314964607326,316.74243972433794,94.773991278024610,28.652333333333335,12.767333333333340,10.492637308845442,12.192011497093858,0.81690638184775477
20210529170000,417.92898091278755,4.4759067828715766,0.59957586607321456,1,452.70617952780299,0,122.02102096195490,0,-7.9690608295395098,0,172.17685649037779,1.8625286329233330,7.8767076471307824,1.4106680651426988,1.4353798242293374,0.83377702377089380,0.72193773886628354,-69.694904791749565,-0.27261677244229776,111.58729686149684,204.01716760580243,244.15644291247588,305.65489386892767,94.749210279296875,27.852666666666668,13.302666666666653,10.988201458855004,12.718231688605442,0.78747293824177511
20210529173000,417.93281889044204,4.3737505209746796,0.32407906182346302,1,337.22741702188949,0,76.728315813436865,0,-6.5740044537522895,0,176.30464544794125,2.0681000265707432,6.7494408488921245,1.1384047370287083,1.2706523341155818,0.81704583910020645,0.53086684018372621,-37.192003299122128,-0.51086250577011727,88.684197526969328,162.14299745340284,194.04375605233895,242.91975650778582,94.719941027560765,27.152999999999999,13.334000000000003,11.117464648379269,12.787109280056370,0.73263634005481171
20210529180000,417.66141548071607,4.5442387272765066,0.81568639118443897,1,537.37538442039943,0,163.90582998533731,0,-8.8002514540342585,0,165.99029295399774,1.3899052438216666,8.4666991423019677,1.5956627679628714,1.2983272310514788,0.97379010837289925,0.84393322302158846,-93.752787263636179,-0.20266064140121320,111.66808798018469,204.16487953776954,244.33321636888670,305.87619325965261,94.689469104166662,26.324666666666666,14.394666666666694,12.045879881221799,13.795776502821241,0.88543704687614033
20210529183000,417.91083343302887,4.4639390946714377,0.58101319046603839,1,450.16907480572337,0,158.94335257279405,1,-8.9957423076580518,1,106.22721643755985,1.9688915439658252,8.2798597644360310,1.3098071824756288,1.3817953527504439,0.76152387914379061,0.71294912012317202,-67.456364210829165,-0.28166356462108016,118.78316934572150,217.17351751278369,259.90123357248046,325.36550343042649,94.654777425175453,25.095666666666666,14.853333333333353,12.614948568819727,14.185374552465419,0.82826227634311378
20210529190000,417.44662543682944,4.6310717208815948,0.69905982334200889,1,467.52036781734330,0,173.22935892213835,0,-9.3061596242567344,0,118.13298131365079,1.4979900083893110,8.9827361283519167,1.6678989537090232,1.6552111468943163,0.86184169921659715,0.78299193432865755,-86.017379648429909,-0.22088559402363533,115.96280931542702,212.01699986970925,253.73019894670284,317.64010036056078,94.616545503038182,25.079999999999998,15.428333333333342,13.092883707190571,14.876702791002117,0.77480397756439612
20210529193000,417.70553123336629,4.5301439276634428,0.88714953437847210,0,485.47968922221992,0,230.17927161210829,1,-7.3713823926119391,0,148.96762274599399,1.7658183116249755,8.2424295590857604,1.5299494254727397,1.8503830199956466,0.90971799907836159,0.88288232207890205,-118.73323105721572,-0.16002259713495198,122.25080475213679,223.51346098130003,267.48852666013880,334.86389403522406,94.592819327907989,23.790333333333333,15.904666666666685,13.730810841033465,15.249822366502599,0.80689438426670135
20210529200000,417.62229879798514,4.5813469879669659,0.49607093089298887,1,494.07428546020418,0,183.49707405762018,0,-6.1347531596261202,0,162.40371002896387,1.5181419915674919,5.8702592401051978,1.1458646387224842,1.1028192185948162,0.85391402069239375,0.66095222720164293,-48.943069218875110,-0.38820614038386803,102.01396801397176,186.51406921589142,223.20970449345759,279.43206299872060,94.571134088324641,23.171333333333333,16.490666666666641,14.369462850338126,15.806332768758125,0.83697694401680445
20210529203000,417.79466790100304,4.5529002332998161,0.60598015799377236,1,400.74497452834657,0,163.50497888673740,0,-6.9052382999804944,0,138.20544051967073,1.7235792030503287,7.5374821872997027,1.4488996678510806,1.3426205324861380,0.80723241182846206,0.73104287086082032,-81.629739269889384,-0.23275830806197975,115.66722162243431,211.47657129405911,253.08344396903379,316.83043987525673,94.544656782335068,22.524666666666668,16.833666666666659,14.809714399705847,16.100065451727971,0.74461693177689958
20210529210000,417.55824139200337,4.6915632440999042,0.51638823328245720,1,384.07861415536996,0,184.82733712277260,0,-5.5441028932553573,0,142.53209510323862,1.5729596391350908,6.8345049294710662,1.2681463554987744,1.4913461298429778,0.80333970261536591,0.67554266669305285,-67.207401628357587,-0.28270695696682185,109.00784196701746,199.30110138375031,238.51251614479941,298.58936728851074,94.537194622676580,22.393666666666668,17.398333333333312,15.374773284013120,16.687370805301612,0.70514299437383143
20210529213000,417.66444744034874,4.8196633974483394,0.34321660663776604,1,278.93691710107879,0,131.06752273080497,0,-4.1549714679498839,0,176.59354536817776,1.0389949619423109,5.5439663493053688,1.1017043258858839,1.2978873306870313,0.72068189122292559,0.55097254047595756,-50.202216254756770,-0.37846934692250184,101.00990812401822,184.67832750857886,221.01279052477861,276.68178740522973,94.521773654947921,22.739999999999998,17.579333333333352,15.482079510582956,16.870387017144139,0.56522383777738971
20210529220000,417.88433672721891,4.8474994782039138,0.21542651273792715,1,256.03069194824695,0,131.09798338735322,1,-6.1630253745740200,0,204.76258402469603,0.70803168651844661,5.4660661068272907,1.0639500199579761,1.4250694219085347,0.64715293523850193,0.43652160613858459,-27.197104415929616,-0.69860378183758087,91.380589450608113,167.07286185991094,199.94354464199097,250.30559172764791,94.508615773220484,22.911000000000001,17.549666666666667,15.418922277151822,16.841580968220967,0.54104278209766243
20210529223000,417.91825810847519,5.0437588112348175,0.39332432678038054,1,194.80007406913990,0,115.76624700595197,0,-4.4438329879409615,0,202.75905677211944,0.95603845963655554,5.7081287627933781,1.3705935146004369,1.0808857671242726,0.67588814766323002,0.59012252626931583,-88.312978099297325,-0.21514391665783011,112.33337042535051,205.38122802848582,245.78887485253480,307.69850494646056,94.500561004825187,23.484999999999999,17.785333333333313,15.533209324914854,17.201893631322264,0.47385742202554998
20210529230000,418.06288994982157,4.9045636067071969,0.34117491947423162,0,131.45267710277506,0,83.512913725946092,0,-1.9563152452519543,0,196.31437365741169,2.0110048036537984,6.9183581478659582,1.1680351118903622,1.1799421267878076,0.66435072003863127,0.54942868778770992,-105.60863897355910,-0.17990952430280793,107.56377541778437,196.66088717034842,235.35285405147647,294.63384528681405,94.488278921098697,23.146000000000001,17.569999999999993,15.391654859796704,17.005010301828065,0.34071733188383063